Eagle San Antonio — 9V9330 — position and weather

sailwx.info

Track history (hours):
 
Tides and Currents Weather Stations Pressure Air Temp Water Temp Dewpoint Dewpoint Depression Visibility Wind Speed Wind Dir Waves Ship Positions

Eagle San Antonio

Last reported at 2016-May-04 22:27 UTC. Time now 2016-May-04 23:04 UTC.
Position N 53°33' E 008°10'.

Length 274 m; draft 14.8 m.

Type: Ship. MMSI: 566453000.

Date/timePositionNaut miles runAvg speedWind from/ knotsBaromVisibWave heightAir tempDewpointWater temp
2016-May-04 22:27N 53°33' E 008°10'0 0.0
2016-May-04 21:24N 53°33' E 008°10'0 0.0
2016-May-04 20:23N 53°33' E 008°10'0 0.0
2016-May-04 19:24N 53°33' E 008°10'0 0.0
2016-May-04 14:06N 53°33' E 008°10'0 0.0
2016-May-04 13:30N 53°33' E 008°10'0 0.0
2016-May-04 12:24N 53°33' E 008°10'0 0.0
2016-May-04 09:28N 53°33' E 008°10'0 0.0
2016-May-04 08:31N 53°33' E 008°10'0 0.0
2016-May-04 07:25N 53°33' E 008°10'0 0.0
2016-May-04 06:19N 53°33' E 008°10'0 0.0
2016-May-03 23:25N 53°33' E 008°10'0 0.0
2016-May-03 22:31N 53°33' E 008°10'0 0.0
2016-May-03 21:29N 53°33' E 008°10'1 1.4
2016-May-03 20:33N 53°35' E 008°10'7 6.9
2016-May-03 19:33N 53°41' E 008°05'1110.9
2016-May-03 18:34N 53°50' E 007°54'1010.4
2016-May-03 17:33N 53°56' E 007°40'1312.5
2016-May-03 16:34N 54°07' E 007°29'1212.2
2016-May-03 15:33N 54°09' E 007°08'1312.7
2016-May-03 14:32N 54°08' E 006°46'1212.2
2016-May-03 13:32N 54°08' E 006°25'1211.9
2016-May-03 12:33N 54°07' E 006°05'1211.7
2016-May-03 11:29N 54°05' E 005°44'1111.7
2016-May-03 10:33N 54°04' E 005°26'1311.7
2016-May-03 09:24N 54°02' E 005°03'18211.9
2016-May-02 18:08N 51°31' E 002°14'711.6
2016-May-02 17:34N 51°25' E 002°08'1111.2
2016-May-02 16:34N 51°14' E 002°04'1110.8
2016-May-02 15:34N 51°08' E 001°50'1010.4
2016-May-02 14:33N 51°01' E 001°37'1110.8
2016-May-02 13:33N 50°52' E 001°28'1211.4
2016-May-02 12:31N 50°42' E 001°20'3911.5
2016-May-02 09:10N 50°25' E 000°26'711.8
2016-May-02 08:34N 50°23' E 000°15'1212.1
2016-May-02 07:34N 50°20' W 000°04'1212.4
2016-May-02 06:34N 50°17' W 000°23'8813.6
2016-May-02 00:05N 50°20' W 002°40'712.6
2016-May-01 23:33N 50°21' W 002°51'1212.4
2016-May-01 22:33N 50°22' W 003°10'10 9.7
2016-May-01 21:34N 50°23' W 003°25'1111.4
2016-May-01 20:33N 50°12' W 003°20'1212.4
2016-May-01 19:33N 50°03' W 003°32'1212.0
2016-May-01 18:33N 49°53' W 003°43'1312.8
2016-May-01 17:33N 49°44' W 003°57'6212.3
2016-May-01 12:32N 49°01' W 005°04'1312.7
2016-May-01 11:28N 48°54' W 005°22'  
2016-Apr-27 14:08N 30°10' W 015°04'814.4
2016-Apr-27 13:33N 30°02' W 015°07'1414.3
2016-Apr-27 12:33N 29°49' W 015°11'1414.3
2016-Apr-27 11:33N 29°35' W 015°15'1313.2
2016-Apr-27 10:34N 29°22' W 015°19'1312.9
2016-Apr-27 09:34N 29°09' W 015°23'1313.0
2016-Apr-27 08:33N 28°57' W 015°27'1312.9
2016-Apr-27 07:33N 28°45' W 015°31'1312.9
2016-Apr-27 06:34N 28°35' W 015°41'1313.1
2016-Apr-27 05:33N 28°24' W 015°50'1312.8
2016-Apr-27 04:34N 28°15' W 015°59'1412.6
2016-Apr-27 03:25N 28°04' W 016°10'1612.9
2016-Apr-27 02:08N 27°51' W 016°21'  
Track history (hours):
 
Tides and Currents Weather Stations Pressure Air Temp Water Temp Dewpoint Dewpoint Depression Visibility Wind Speed Wind Dir Waves Ship Positions

Eagle San Antonio

Last reported at 2016-May-04 22:27 UTC. Time now 2016-May-04 23:04 UTC.
Position N 53°33' E 008°10'.

Length 274 m; draft 14.8 m.

Type: Ship. MMSI: 566453000.

Date/timePositionNaut miles runAvg speedWind from/ knotsBaromVisibWave heightAir tempDewpointWater temp
2016-May-04 22:27N 53°33' E 008°10'0 0.0
2016-May-04 21:24N 53°33' E 008°10'0 0.0
2016-May-04 20:23N 53°33' E 008°10'0 0.0
2016-May-04 19:24N 53°33' E 008°10'0 0.0
2016-May-04 14:06N 53°33' E 008°10'0 0.0
2016-May-04 13:30N 53°33' E 008°10'0 0.0
2016-May-04 12:24N 53°33' E 008°10'0 0.0
2016-May-04 09:28N 53°33' E 008°10'0 0.0
2016-May-04 08:31N 53°33' E 008°10'0 0.0
2016-May-04 07:25N 53°33' E 008°10'0 0.0
2016-May-04 06:19N 53°33' E 008°10'0 0.0
2016-May-03 23:25N 53°33' E 008°10'0 0.0
2016-May-03 22:31N 53°33' E 008°10'0 0.0
2016-May-03 21:29N 53°33' E 008°10'1 1.4
2016-May-03 20:33N 53°35' E 008°10'7 6.9
2016-May-03 19:33N 53°41' E 008°05'1110.9
2016-May-03 18:34N 53°50' E 007°54'1010.4
2016-May-03 17:33N 53°56' E 007°40'1312.5
2016-May-03 16:34N 54°07' E 007°29'1212.2
2016-May-03 15:33N 54°09' E 007°08'1312.7
2016-May-03 14:32N 54°08' E 006°46'1212.2
2016-May-03 13:32N 54°08' E 006°25'1211.9
2016-May-03 12:33N 54°07' E 006°05'1211.7
2016-May-03 11:29N 54°05' E 005°44'1111.7
2016-May-03 10:33N 54°04' E 005°26'1311.7
2016-May-03 09:24N 54°02' E 005°03'18211.9
2016-May-02 18:08N 51°31' E 002°14'711.6
2016-May-02 17:34N 51°25' E 002°08'1111.2
2016-May-02 16:34N 51°14' E 002°04'1110.8
2016-May-02 15:34N 51°08' E 001°50'1010.4
2016-May-02 14:33N 51°01' E 001°37'1110.8
2016-May-02 13:33N 50°52' E 001°28'1211.4
2016-May-02 12:31N 50°42' E 001°20'3911.5
2016-May-02 09:10N 50°25' E 000°26'711.8
2016-May-02 08:34N 50°23' E 000°15'1212.1
2016-May-02 07:34N 50°20' W 000°04'1212.4
2016-May-02 06:34N 50°17' W 000°23'8813.6
2016-May-02 00:05N 50°20' W 002°40'712.6
2016-May-01 23:33N 50°21' W 002°51'1212.4
2016-May-01 22:33N 50°22' W 003°10'10 9.7
2016-May-01 21:34N 50°23' W 003°25'1111.4
2016-May-01 20:33N 50°12' W 003°20'1212.4
2016-May-01 19:33N 50°03' W 003°32'1212.0
2016-May-01 18:33N 49°53' W 003°43'1312.8
2016-May-01 17:33N 49°44' W 003°57'6212.3
2016-May-01 12:32N 49°01' W 005°04'1312.7
2016-May-01 11:28N 48°54' W 005°22'  
2016-Apr-27 14:08N 30°10' W 015°04'814.4
2016-Apr-27 13:33N 30°02' W 015°07'1414.3
2016-Apr-27 12:33N 29°49' W 015°11'1414.3
2016-Apr-27 11:33N 29°35' W 015°15'1313.2
2016-Apr-27 10:34N 29°22' W 015°19'1312.9
2016-Apr-27 09:34N 29°09' W 015°23'1313.0
2016-Apr-27 08:33N 28°57' W 015°27'1312.9
2016-Apr-27 07:33N 28°45' W 015°31'1312.9
2016-Apr-27 06:34N 28°35' W 015°41'1313.1
2016-Apr-27 05:33N 28°24' W 015°50'1312.8
2016-Apr-27 04:34N 28°15' W 015°59'1412.6
2016-Apr-27 03:25N 28°04' W 016°10'1612.9
2016-Apr-27 02:08N 27°51' W 016°21'  

Dump ship's entire track history